Total_Precipitation_Accumulation
2.42 2.54 2.55 2.53 2.63 2.60 2.78 3.07 3.31 3.15 2.83 2.69 2.55 2.48 2.56 2.67 2.96 2.70 2.58 2.62 2.37 2.19 2.09 2.08 2.17 2.22 2.38 2.65 2.81 2.89 2.93 3.01 3.06 3.10 3.18 3.34 3.52 3.65
2.22 2.28 2.28 2.27 2.50 2.58 2.62 2.82 3.12 3.26 3.12 2.76 2.57 2.37 2.43 2.43 2.86 2.73 2.74 2.86 2.49 2.19 2.09 2.10 2.13 2.13 2.17 2.23 2.38 2.53 2.65 2.72 2.75 2.79 2.89 3.01 3.14 3.34
2.05 2.02 2.02 2.16 2.30 2.33 2.45 2.59 2.86 3.18 3.28 3.00 2.71 2.55 2.60 2.69 2.82 2.83 2.67 2.54 2.35 2.36 2.19 2.10 2.23 2.40 2.27 2.09 2.04 2.09 2.26 2.41 2.52 2.55 2.63 2.75 2.83 2.97
1.88 1.92 1.78 1.85 2.05 2.17 2.32 2.41 2.61 2.87 3.05 2.99 2.77 2.68 2.64 2.64 2.81 2.83 2.58 2.29 2.11 2.27 2.16 2.06 2.18 2.53 2.59 2.31 2.12 1.98 1.95 2.00 2.12 2.24 2.33 2.41 2.54 2.72
1.78 1.79 1.74 1.87 1.95 2.12 2.24 2.31 2.49 2.57 2.85 2.86 2.64 2.63 2.68 2.65 2.79 2.66 2.42 2.36 1.90 1.91 1.95 1.96 2.04 2.60 3.00 2.77 2.45 2.22 1.97 1.82 1.76 1.88 2.03 2.17 2.21 2.28
1.63 1.64 1.64 1.72 1.86 2.10 2.18 2.34 2.54 2.68 2.83 2.85 2.71 2.67 2.73 2.83 2.86 2.84 2.65 2.43 2.10 1.70 1.79 1.87 2.03 2.47 3.05 3.21 2.82 2.54 2.27 2.02 1.82 1.73 1.78 1.82 1.85 1.86
1.58 1.55 1.52 1.54 1.69 1.85 1.91 2.20 2.51 2.69 2.76 2.82 2.75 2.69 2.67 2.84 2.70 2.55 2.54 2.41 2.15 1.90 1.95 1.80 1.99 2.58 3.21 3.54 3.32 2.73 2.30 2.09 1.93 1.76 1.67 1.63 1.62 1.65
1.64 1.60 1.42 1.37 1.41 1.47 1.54 1.68 2.03 2.33 2.54 2.68 2.66 2.59 2.50 2.55 2.57 2.47 2.48 2.51 2.33 1.95 2.00 2.05 2.26 3.05 3.56 3.77 3.70 2.87 2.20 1.97 1.90 1.81 1.72 1.63 1.54 1.50
1.64 1.68 1.48 1.32 1.43 1.43 1.42 1.39 1.52 1.80 2.16 2.48 2.59 2.41 2.44 2.50 2.63 2.60 2.48 2.46 2.38 2.08 2.12 2.18 2.45 3.08 3.43 3.79 3.78 3.00 2.38 2.04 1.95 1.89 1.79 1.69 1.61 1.51
1.52 1.54 1.62 1.59 1.39 1.40 1.51 1.58 1.67 1.78 1.89 1.99 2.26 2.37 2.41 2.41 2.43 2.46 2.53 2.54 2.38 2.10 2.15 2.39 2.44 2.82 3.17 3.67 3.63 2.96 2.46 2.16 2.00 1.90 1.77 1.64 1.56 1.53
1.33 1.28 1.33 1.36 1.29 1.32 1.54 1.85 1.98 2.12 1.94 1.94 2.06 2.25 2.31 2.18 2.10 2.26 2.58 2.70 2.45 2.12 2.03 2.28 2.38 2.55 2.90 3.23 3.07 2.74 2.38 2.16 1.97 1.81 1.71 1.64 1.56 1.54
1.25 1.23 1.25 1.21 1.20 1.28 1.53 1.96 2.19 2.23 2.00 1.87 2.02 2.19 2.11 2.05 2.10 2.23 2.52 2.61 2.43 2.30 2.01 2.16 2.26 2.40 2.80 2.86 2.61 2.32 2.21 2.22 2.07 1.91 1.76 1.63 1.54 1.45
1.11 1.18 1.21 1.18 1.12 1.22 1.46 1.78 2.04 2.12 2.05 2.01 2.09 2.18 2.21 2.22 2.13 2.15 2.30 2.36 2.38 2.26 1.89 2.14 2.37 2.45 2.66 2.69 2.54 2.36 2.15 2.11 2.07 2.14 2.09 1.84 1.64 1.53
1.13 1.13 1.17 1.18 1.15 1.26 1.37 1.67 1.97 2.14 2.06 1.96 1.93 1.97 1.98 2.00 1.95 1.87 1.89 1.96 2.03 2.08 1.99 2.17 2.50 2.63 2.59 2.43 2.45 2.35 2.28 2.21 2.11 2.15 2.24 2.14 1.92 1.84
0.99 1.11 1.10 1.07 1.22 1.49 1.64 1.81 2.03 2.21 2.12 1.91 1.83 1.76 1.75 1.78 1.73 1.75 1.78 1.81 1.77 1.69 1.59 1.83 2.21 2.44 2.50 2.40 2.33 2.28 2.43 2.58 2.42 2.35 2.27 2.13 1.99 1.85
0.83 1.03 1.18 1.25 1.40 1.70 1.94 2.06 2.13 2.11 1.96 1.81 1.73 1.68 1.65 1.67 1.70 1.66 1.75 1.78 1.83 1.79 1.64 1.66 1.91 2.21 2.33 2.24 2.28 2.31 2.37 2.77 2.74 2.51 2.39 2.32 2.14 1.97
0.83 1.03 1.20 1.30 1.51 1.75 1.89 1.93 1.93 1.89 1.84 1.73 1.63 1.61 1.63 1.66 1.68 1.67 1.71 1.67 1.71 1.70 1.75 1.78 1.85 1.99 2.05 2.11 2.24 2.24 2.37 2.55 2.57 2.42 2.39 2.45 2.39 2.16
0.90 1.13 1.32 1.42 1.59 1.71 1.83 1.80 1.73 1.71 1.69 1.67 1.64 1.57 1.56 1.59 1.66 1.67 1.63 1.59 1.62 1.57 1.54 1.61 1.67 1.76 1.88 2.00 2.11 2.17 2.20 2.35 2.40 2.34 2.20 2.28 2.42 2.31
0.94 1.18 1.38 1.50 1.62 1.65 1.67 1.66 1.63 1.58 1.51 1.52 1.52 1.49 1.47 1.50 1.54 1.57 1.54 1.51 1.51 1.46 1.39 1.44 1.52 1.62 1.77 2.00 2.05 2.07 2.09 2.15 2.22 2.18 2.09 2.10 2.26 2.31
1.00 1.20 1.40 1.46 1.50 1.55 1.55 1.54 1.52 1.47 1.43 1.46 1.52 1.48 1.40 1.37 1.34 1.36 1.40 1.38 1.35 1.30 1.32 1.35 1.37 1.52 1.71 1.89 2.12 2.14 1.96 1.85 1.91 1.98 1.92 1.94 2.09 2.09
0.98 1.10 1.20 1.30 1.38 1.44 1.45 1.43 1.43 1.40 1.35 1.35 1.38 1.38 1.34 1.26 1.19 1.16 1.19 1.15 1.15 1.18 1.26 1.34 1.34 1.29 1.35 1.54 1.78 1.88 1.84 1.85 1.81 1.78 1.74 1.85 1.85 1.73
0.94 1.00 1.03 1.06 1.15 1.24 1.24 1.20 1.23 1.23 1.22 1.24 1.23 1.25 1.28 1.23 1.14 1.08 1.07 1.10 1.14 1.14 1.18 1.21 1.16 1.17 1.30 1.52 1.68 1.76 1.71 1.59 1.59 1.56 1.53 1.52 1.51 1.63
0.86 0.87 0.90 0.92 0.91 0.95 1.02 1.04 1.09 1.18 1.21 1.21 1.20 1.18 1.16 1.11 1.04 1.01 1.03 1.04 1.02 1.01 1.08 1.16 1.17 1.19 1.28 1.42 1.55 1.55 1.46 1.41 1.40 1.40 1.45 1.46 1.36 1.41